Погода в Колиме

Мексика     19°14′36″N   103°43′42″W
темп.,
°C
ветер,
м/с
пор.,
м/с
влажн.,
%
обл.,
%
осадки,
мм/ч
давл.,
гПа
погр.,
м
10 мая, пн
пн1001:00+23св1182100 0.8 101447
04:00+22ссв1181100 0.8 101250
07:00+22всв1179100 0.8 101228
10:00+27ю115899 0.1 1012501
13:00+32ю2141100 0.1 10111685
16:00+33ююз7441100 0.0 10081740
19:00+29ю3454100 0.3 1009947
22:00+23ююз0079100 1.3 101228
11 мая, вт
вт1101:00+22ссв1184100 2.3 101224
04:00+22св118592 0.0 101113
07:00+21св1185100 0.0 101113
10:00+27вюв115782 0.0 1012562
13:00+33ююз2237100 0.0 10111607
16:00+32ююз5442100 0.0 10091466
19:00+28ю3353100 0.1 1009749
22:00+23юз117770 0.6 101225
12 мая, ср
ср1201:00+22св0084100 0.6 101412
04:00+21всв11846 0.0 101211
07:00+21ссв118428 0.0 101311
10:00+28ююв115477 0.0 1014627
13:00+33ююз3233100 0.0 10121876
16:00+34ююз7435100 0.0 10091821
19:00+28ю235469 0.6 1011530
22:00+24ююз01685 0.1 101314
13 мая, чт
чт1301:00+23с007452 0.5 101311
04:00+22ссв117579 0.0 101211
07:00+22ссв117715 0.4 101214
10:00+28ююв11528 0.5 1013510
13:00+34ю323410 0.5 10111581
16:00+33юз333984 0.6 10091474
19:00+25всв2377100 6.4 1012401
22:00+24з127987 0.1 101296
14 мая, пт
пт1401:00+23юв118482 0.1 101411
04:00+22ссв118585 0.2 101311
07:00+21с118542 0.9 101315
10:00+28юв125512 0.0 1014582
13:00+34ююз22355 0.0 10111743
16:00+34ююз533783 0.0 10081848
19:00+27ююз3467100 4.2 1010616
22:00+23ю1184100 3.8 1013261